TimeCST,TemperatureF,Dew PointF,Humidity,Sea Level PressureIn,VisibilityMPH,Wind Direction,Wind SpeedMPH,Gust SpeedMPH,PrecipitationIn,Events,Conditions,WindDirDegrees,DateUTC
12:51 AM,37.0,30.0,76,30.28,10.0,NNE,13.8,-,N/A,,Partly Cloudy,20,2013-12-25 06:51:00
1:51 AM,36.0,30.9,82,30.28,10.0,NNE,10.4,-,N/A,,Clear,20,2013-12-25 07:51:00
2:51 AM,36.0,30.9,82,30.30,10.0,North,5.8,-,N/A,,Mostly Cloudy,360,2013-12-25 08:51:00
3:51 AM,35.1,30.9,85,30.30,10.0,NNW,5.8,-,N/A,,Clear,330,2013-12-25 09:51:00
4:32 AM,35.1,30.9,85,30.30,10.0,NNW,6.9,-,N/A,,Mostly Cloudy,340,2013-12-25 10:32:00
4:51 AM,35.1,30.9,85,30.30,10.0,NNW,8.1,-,N/A,,Overcast,340,2013-12-25 10:51:00
5:51 AM,36.0,30.0,79,30.32,10.0,North,12.7,-,N/A,,Overcast,360,2013-12-25 11:51:00
6:51 AM,36.0,30.0,79,30.37,10.0,North,10.4,-,N/A,,Overcast,10,2013-12-25 12:51:00
7:51 AM,35.1,28.9,78,30.40,10.0,North,10.4,-,N/A,,Overcast,360,2013-12-25 13:51:00
8:51 AM,34.0,28.0,79,30.45,10.0,North,9.2,-,N/A,,Overcast,350,2013-12-25 14:51:00
9:38 AM,35.1,27.0,72,30.43,10.0,North,9.2,-,N/A,,Scattered Clouds,350,2013-12-25 15:38:00
9:51 AM,35.1,27.0,72,30.47,10.0,North,10.4,-,N/A,,Partly Cloudy,350,2013-12-25 15:51:00
10:51 AM,37.9,27.0,65,30.48,10.0,North,9.2,-,N/A,,Clear,360,2013-12-25 16:51:00
11:51 AM,42.1,25.0,51,30.47,10.0,North,11.5,-,N/A,,Clear,360,2013-12-25 17:51:00
12:51 PM,42.1,23.0,47,30.44,10.0,NNW,9.2,-,N/A,,Clear,340,2013-12-25 18:51:00
1:51 PM,44.1,24.1,45,30.41,10.0,North,11.5,-,N/A,,Clear,10,2013-12-25 19:51:00
2:51 PM,45.0,26.1,48,30.40,10.0,NNW,12.7,-,N/A,,Clear,340,2013-12-25 20:51:00
3:51 PM,46.0,21.9,39,30.40,10.0,North,9.2,-,N/A,,Clear,10,2013-12-25 21:51:00
4:51 PM,45.0,19.0,36,30.41,10.0,NNE,9.2,-,N/A,,Clear,20,2013-12-25 22:51:00
5:51 PM,42.1,19.9,41,30.42,10.0,NNE,3.5,-,N/A,,Clear,30,2013-12-25 23:51:00
6:51 PM,41.0,21.0,45,30.43,10.0,Calm,Calm,-,N/A,,Clear,0,2013-12-26 00:51:00
7:51 PM,37.0,21.0,52,30.45,10.0,SW,5.8,-,N/A,,Clear,230,2013-12-26 01:51:00
8:51 PM,35.1,23.0,61,30.46,10.0,WSW,5.8,-,N/A,,Clear,250,2013-12-26 02:51:00
9:51 PM,33.1,25.0,72,30.46,10.0,SW,5.8,-,N/A,,Clear,220,2013-12-26 03:51:00
10:51 PM,30.9,25.0,79,30.46,10.0,WSW,3.5,-,N/A,,Clear,240,2013-12-26 04:51:00
11:51 PM,34.0,25.0,70,30.43,10.0,SW,8.1,-,N/A,,Clear,220,2013-12-26 05:51:00